| time (UTC) | temp F | wind direction | speed knots | gust knots | rain 1hr in | rain 24hr in | rain mn in | humidity % | barometer mb |
| 20260906133009 | 60 | 240 | 6.1 | 16.5 | 0.00 | 0.00 | 0.00 | 52 | 1019.0 |
| 20260906131510 | 61 | 215 | 5.2 | 13.9 | 0.00 | 0.00 | 0.00 | 52 | 1019.1 |
| 20260906130015 | 61 | 335 | 4.3 | 16.5 | 0.00 | 0.00 | 0.00 | 50 | 1019.2 |
| 20260906124509 | 62 | 241 | 7.8 | 15.6 | 0.00 | 0.00 | 0.00 | 50 | 1019.3 |
| 20260906123027 | 61 | 287 | 6.1 | 14.8 | 0.00 | 0.00 | 0.00 | 49 | 1019.1 |
| 20260906121509 | 61 | 281 | 7.8 | 16.5 | 0.00 | 0.00 | 0.00 | 50 | 1019.0 |
| 20260906120009 | 62 | 268 | 7.8 | 13.0 | 0.00 | 0.00 | 0.00 | 52 | 1019.1 |
| 20260906114511 | 63 | 279 | 6.1 | 10.4 | 0.00 | 0.00 | 0.00 | 51 | 1019.0 |
| 20260906113012 | 61 | 248 | 4.3 | 13.0 | 0.00 | 0.00 | 0.00 | 54 | 1019.0 |
| 20260906111509 | 61 | 219 | 7.0 | 15.6 | 0.00 | 0.00 | 0.00 | 54 | 1018.9 |
| 20260906110009 | 61 | 303 | 5.2 | 13.0 | 0.00 | 0.00 | 0.00 | 54 | 1019.1 |
| 20260906104510 | 61 | 290 | 9.6 | 15.6 | 0.00 | 0.00 | 0.00 | 54 | 1019.0 |
| 20260906103011 | 61 | 254 | 7.8 | 17.4 | 0.00 | 0.00 | 0.00 | 54 | 1018.9 |
| 20260906101510 | 62 | 275 | 7.0 | 11.3 | 0.00 | 0.00 | 0.00 | 54 | 1018.8 |
| 20260906100011 | 60 | 225 | 3.5 | 13.0 | 0.00 | 0.00 | 0.00 | 56 | 1018.8 |
| 20260906094510 | 60 | 300 | 2.6 | 10.4 | 0.00 | 0.00 | 0.00 | 58 | 1018.8 |
| 20260906093017 | 59 | 246 | 7.8 | 13.0 | 0.00 | 0.00 | 0.00 | 58 | 1018.6 |
| 20260906091502 | 59 | 285 | 12.2 | 17.4 | 0.00 | 0.00 | 0.00 | 57 | 1018.8 |
| 20260906090009 | 59 | 310 | 9.6 | 18.2 | 0.00 | 0.00 | 0.00 | 57 | 1018.6 |
| 20260906084510 | 59 | 255 | 7.0 | 14.8 | 0.00 | 0.00 | 0.00 | 57 | 1018.4 |
| 20260906083010 | 59 | 255 | 5.2 | 14.8 | 0.00 | 0.00 | 0.00 | 57 | 1018.3 |
| 20260906081512 | 59 | 277 | 7.8 | 13.9 | 0.00 | 0.00 | 0.00 | 57 | 1018.2 |
| 20260906080010 | 59 | 275 | 5.2 | 11.3 | 0.00 | 0.00 | 0.00 | 60 | 1017.9 |
| 20260906074510 | 58 | 247 | 5.2 | 10.4 | 0.00 | 0.00 | 0.00 | 64 | 1017.9 |
| 20260906073023 | 57 | 248 | 3.5 | 13.0 | 0.00 | 0.00 | 0.00 | 66 | 1017.7 |
| 20260906071509 | 56 | 217 | 3.5 | 6.1 | 0.00 | 0.00 | 0.00 | 72 | 1018.0 |
| 20260906070009 | 55 | 163 | 2.6 | 7.8 | 0.00 | 0.00 | 0.00 | 74 | 1017.9 |
| 20260906064509 | 53 | 163 | 0.9 | 5.2 | 0.00 | 0.00 | 0.00 | 78 | 1017.8 |
| 20260906063011 | 51 | 161 | 2.6 | 6.1 | 0.00 | 0.00 | 0.00 | 82 | 1017.9 |
| 20260906061510 | 49 | 161 | 5.2 | 9.6 | 0.00 | 0.00 | 0.00 | 84 | 1017.7 |
| 20260906060009 | 48 | 155 | 5.2 | 7.8 | 0.00 | 0.00 | 0.00 | 88 | 1017.6 |
| 20260906054512 | 47 | 171 | 0.0 | 1.7 | 0.00 | 0.00 | 0.00 | 88 | 1017.4 |
| 20260906053009 | 47 | 171 | 0.0 | 0.9 | 0.00 | 0.00 | 0.00 | 87 | 1017.4 |
| 20260906051515 | 47 | 171 | 0.0 | 4.3 | 0.00 | 0.00 | 0.00 | 86 | 1017.3 |
| 20260906050010 | 48 | 171 | 2.6 | 4.3 | 0.00 | 0.00 | 0.00 | 85 | 1017.4 |
| 20260906044510 | 48 | 171 | 2.6 | 4.3 | 0.00 | 0.00 | 0.00 | 84 | 1017.1 |
| 20260906043010 | 48 | 171 | 0.0 | 4.3 | 0.00 | 0.00 | 0.00 | 84 | 1016.8 |
| 20260906041510 | 48 | 182 | 3.5 | 5.2 | 0.00 | 0.00 | 0.00 | 83 | 1016.6 |
| 20260906040010 | 49 | 238 | 0.0 | 7.0 | 0.00 | 0.00 | 0.00 | 79 | 1016.5 |
| 20260906034512 | 49 | 21 | 0.0 | 2.6 | 0.00 | 0.00 | 0.00 | 83 | 1016.3 |
| 20260906033010 | 49 | 21 | 0.9 | 3.5 | 0.00 | 0.00 | 0.00 | 83 | 1016.2 |
| 20260906031511 | 49 | 21 | 1.7 | 3.5 | 0.00 | 0.00 | 0.00 | 83 | 1016.1 |
| 20260906030009 | 50 | 20 | 2.6 | 6.1 | 0.00 | 0.00 | 0.00 | 80 | 1015.9 |
| 20260906024509 | 51 | 18 | 0.0 | 1.7 | 0.00 | 0.00 | 0.00 | 78 | 1015.9 |
| 20260906023009 | 52 | 17 | 0.0 | 7.0 | 0.00 | 0.00 | 0.00 | 73 | 1015.5 |
| 20260906021510 | 52 | 35 | 1.7 | 7.8 | 0.00 | 0.00 | 0.00 | 72 | 1015.3 |
| 20260906020009 | 52 | 296 | 0.9 | 7.0 | 0.00 | 0.00 | 0.00 | 74 | 1015.4 |
| 20260906014510 | 51 | 306 | 1.7 | 4.3 | 0.00 | 0.00 | 0.00 | 78 | 1015.3 |
| 20260906013009 | 52 | 300 | 0.0 | 4.3 | 0.00 | 0.00 | 0.00 | 77 | 1015.2 |
| 20260906011510 | 53 | 5 | 3.5 | 7.8 | 0.00 | 0.00 | 0.00 | 70 | 1015.1 |
| 20260906010010 | 53 | 295 | 0.9 | 6.1 | 0.00 | 0.00 | 0.00 | 71 | 1015.0 |
| 20260906004510 | 53 | 315 | 2.6 | 10.4 | 0.00 | 0.00 | 0.00 | 70 | 1015.0 |
| 20260906003010 | 53 | 236 | 0.9 | 3.5 | 0.00 | 0.00 | 0.00 | 71 | 1015.0 |
| 20260906001511 | 53 | 292 | 0.9 | 4.3 | 0.00 | 0.00 | 0.00 | 71 | 1014.9 |
| 20260906000010 | 53 | 288 | 0.9 | 4.3 | 0.00 | 0.01 | 0.00 | 71 | 1014.4 |
| 20260905234508 | 54 | 288 | 2.6 | 6.1 | 0.00 | 0.01 | 0.00 | 71 | 1014.3 |
| 20260905233012 | 54 | 277 | 0.9 | 7.0 | 0.00 | 0.01 | 0.00 | 73 | 1014.1 |
| 20260905231513 | 54 | 288 | 1.7 | 7.0 | 0.00 | 0.01 | 0.00 | 73 | 1013.7 |
| 20260905230013 | 55 | 284 | 2.6 | 9.6 | 0.00 | 0.01 | 0.00 | 71 | 1013.4 |
| 20260905224509 | 55 | 286 | 2.6 | 7.0 | 0.00 | 0.01 | 0.00 | 71 | 1013.3 |
| 20260905223009 | 55 | 326 | 1.7 | 7.0 | 0.00 | 0.01 | 0.00 | 71 | 1013.0 |
| 20260905221513 | 55 | 290 | 4.3 | 8.7 | 0.00 | 0.01 | 0.00 | 71 | 1012.6 |
| 20260905220009 | 55 | 309 | 5.2 | 11.3 | 0.00 | 0.01 | 0.01 | 71 | 1012.4 |
| 20260905214509 | 55 | 293 | 2.6 | 8.7 | 0.00 | 0.01 | 0.01 | 71 | 1012.3 |
| 20260905213010 | 55 | 286 | 2.6 | 6.1 | 0.00 | 0.01 | 0.01 | 71 | 1012.2 |
| 20260905211509 | 56 | 282 | 1.7 | 8.7 | 0.00 | 0.01 | 0.01 | 70 | 1012.0 |
| 20260905210010 | 56 | 308 | 6.1 | 11.3 | 0.00 | 0.01 | 0.01 | 71 | 1011.8 |
| 20260905204510 | 55 | 293 | 3.5 | 7.8 | 0.00 | 0.01 | 0.01 | 72 | 1011.4 |
| 20260905203010 | 56 | 279 | 3.5 | 7.0 | 0.00 | 0.01 | 0.01 | 72 | 1011.2 |
| 20260905201515 | 56 | 286 | 4.3 | 11.3 | 0.00 | 0.01 | 0.01 | 71 | 1011.1 |
| 20260905200010 | 56 | 283 | 0.0 | 9.6 | 0.00 | 0.02 | 0.01 | 71 | 1010.9 |
| 20260905194510 | 56 | 291 | 0.9 | 2.6 | 0.00 | 0.02 | 0.01 | 71 | 1010.7 |
| 20260905193009 | 56 | 295 | 0.9 | 7.0 | 0.00 | 0.02 | 0.01 | 71 | 1010.4 |
| 20260905191512 | 57 | 309 | 0.9 | 8.7 | 0.00 | 0.02 | 0.01 | 70 | 1010.3 |
| 20260905190030 | 57 | 256 | 1.7 | 13.9 | 0.00 | 0.08 | 0.01 | 70 | 1009.9 |
| 20260905184510 | 58 | 247 | 0.9 | 9.6 | 0.00 | 0.08 | 0.01 | 69 | 1009.7 |
| 20260905183014 | 58 | 184 | 1.7 | 4.3 | 0.00 | 0.08 | 0.01 | 68 | 1009.3 |
| 20260905181515 | 58 | 335 | 0.0 | 10.4 | 0.00 | 0.08 | 0.01 | 67 | 1008.9 |
| 20260905180017 | 59 | 270 | 6.1 | 13.0 | 0.00 | 0.10 | 0.01 | 66 | 1008.8 |
| 20260905174509 | 60 | 288 | 3.5 | 8.7 | 0.00 | 0.10 | 0.01 | 65 | 1008.3 |
| 20260905173009 | 60 | 276 | 4.3 | 13.0 | 0.00 | 0.10 | 0.01 | 65 | 1008.0 |
| 20260905171508 | 60 | 294 | 4.3 | 15.6 | 0.00 | 0.10 | 0.01 | 65 | 1007.5 |
| 20260905170009 | 61 | 275 | 6.1 | 16.5 | 0.00 | 0.13 | 0.01 | 65 | 1007.2 |
| 20260905164510 | 61 | 260 | 7.0 | 15.6 | 0.00 | 0.13 | 0.01 | 64 | 1007.0 |
| 20260905163011 | 61 | 271 | 8.7 | 17.4 | 0.00 | 0.13 | 0.01 | 63 | 1006.7 |
| 20260905161510 | 62 | 274 | 7.0 | 14.8 | 0.00 | 0.13 | 0.01 | 61 | 1006.6 |
| 20260905160011 | 62 | 311 | 8.7 | 21.7 | 0.00 | 0.18 | 0.01 | 56 | 1006.3 |
| 20260905154509 | 63 | 300 | 11.3 | 20.0 | 0.00 | 0.18 | 0.01 | 53 | 1006.1 |
| 20260905153012 | 63 | 355 | 13.9 | 23.5 | 0.00 | 0.18 | 0.01 | 53 | 1006.1 |
| 20260905151509 | 64 | 311 | 8.7 | 17.4 | 0.00 | 0.18 | 0.01 | 51 | 1005.6 |
| 20260905150010 | 62 | 275 | 11.3 | 23.5 | 0.00 | 0.18 | 0.01 | 52 | 1005.3 |
| 20260905144509 | 62 | 282 | 14.8 | 24.3 | 0.00 | 0.18 | 0.01 | 53 | 1005.0 |
| 20260905143019 | 63 | 322 | 9.6 | 20.9 | 0.00 | 0.18 | 0.01 | 49 | 1004.6 |
| 20260905141510 | 64 | 284 | 8.7 | 20.0 | 0.00 | 0.18 | 0.01 | 50 | 1004.4 |
| 20260905140012 | 64 | 282 | 3.5 | 18.2 | 0.00 | 0.18 | 0.01 | 51 | 1004.2 |
| 20260905134511 | 63 | 276 | 7.8 | 20.9 | 0.00 | 0.18 | 0.01 | 52 | 1003.8 |